Regional Weather Roundup
Issued by NWS Sioux Falls, SD

Home | Current Version | Previous Version | Graphics & Text | Print | Product List | Glossary On
Versions: 1 2 3 4 5 6 7 8 9 10 11 12 13 14 15 16 17 18 19 20 21 22 23 24 25 26 27 28 29 30 31 32 33 34 35 36 37 38 39 40 41 42 43 44 45 46 47 48 49 50
053
ASUS43 KFSD 192010
RWRFSD

WEATHER ROUNDUP FOR SE SOUTH DAKOTA/SW MINNESOTA/NW IOWA
NATIONAL WEATHER SERVICE SIOUX FALLS SD
200 PM CST MON FEB 19 2018

NOTE: "FAIR" INDICATES FEW OR NO CLOUDS BELOW 12,000 FEET WITH NO
SIGNIFICANT WEATHER AND OR OBSTRUCTIONS TO VISIBILITY.


SDZ038>040-050-052>070-192100-
SOUTHEAST SOUTH DAKOTA

CITY           SKY/WX    TMP DP  RH WIND       PRES   REMARKS
BROOKINGS      LGT SNOW  11   7  84 N17G25    29.89R FOG     WCI  -6
CHAMBERLAIN    LGT SNOW  12   8  85 NW20      29.98F WCI  -6
HURON          LGT SNOW  12   7  80 N20       30.00R WCI  -6
MADISON        FLURRIES  12  12 100 NE22G28   29.87S WCI  -7
MITCHELL       LGT SNOW  15  10  80 N23       29.96S WCI  -3
SIOUX FALLS    LGT SNOW  17  12  80 N18       29.87R WCI   1
WINNER         LGT SNOW  10   4  76 N22       29.96F WCI -10
YANKTON        LGT SNOW  17  14  88 N16       29.89S FOG     WCI   2
$$

MNZ071-072-080-081-089-090-097-098-192100-
SOUTHWEST MINNESOTA

CITY           SKY/WX    TMP DP  RH WIND       PRES   REMARKS
FAIRMONT       MIX PCPN  22  20  92 MISG      29.79R FOG
JACKSON        CLOUDY    19  16  86 VRB15G23  29.79S FOG     WCI   5
LUVERNE        CLOUDY    18  14  86 NE13G22   29.85S FOG     WCI   4
MARSHALL       FLURRIES  15  11  83 N21       29.91S WCI  -2
MONTEVIDEO     CLOUDY    16  10  79 NE18G24   29.94F WCI  -1
PIPESTONE      LGT SNOW  14  10  85 NE22G29   29.83S WCI  -4
REDWOOD FALLS  LGT SNOW  19  14  81 N10G21    29.88F WCI   7
TRACY          LGT SNOW  18  15  91 N21       29.86F WCI   1
WINDOM         CLOUDY    18   5  57 N18       29.81S HAZE    WCI   2
WORTHINGTON    LGT SNOW  18  14  86 N18G28    29.80F FOG     WCI   2
$$

IAZ001>003-012>014-020>022-031-032-NEZ013-014-SDZ071-192100-
NORTHWEST IOWA

CITY           SKY/WX    TMP DP  RH WIND       PRES   REMARKS
CHEROKEE       CLOUDY    20  19  96 N10       29.80F FOG     WCI   9
DENISON        SUNNY     23  23 100 N18       29.79F FOG     WCI   9
ESTHERVILLE    CLOUDY    19  18  95 N21       29.77S FOG     WCI   3
LE MARS        MOSUNNY   19  18  93 MISG      29.84R FOG
ORANGE CITY    CLOUDY    19  18  93 N10       29.82R FOG     WCI   8
SHELDON        MOSUNNY   18  18 100 MISG      29.79S FOG
SIOUX CITY     CLOUDY    20  18  92 N14       29.85R WCI   7
SPENCER        LGT SNOW  20  17  88 N16G40    29.79R VSB 1   WCI   6
STORM LAKE     CLOUDY    21  19  93 MISG      29.77R FOG
$$

ABBREVIATIONS USED IN REMARKS
   TC - TEMPERATURE IN CELSIUS
  WCI - WIND CHILL INDEX
   HX - HEAT INDEX
  VSB - VISIBILITY





USA.gov is the U.S. government's official web portal to all federal, state and local government web resources and services.